ニート彗星

246P/NEAT (2021)

English version
Home page
Updated on August 15, 2020

---------------------------------------------------------------------

・ プロフィール

・ 写真集

・ 軌道要素

Epoch 2021 Mar. 7.0 TT = JDT 2459280.5
T 2021 Feb. 22.82184 TT                                 Rudenko
q   2.8639206            (2000.0)            P               Q
n   0.12245313     Peri.  176.29996     -0.25557096     +0.92828763
a   4.0162690      Node    78.74751     -0.89393272     -0.12049232
e   0.2869201      Incl.   15.98679     -0.36819530     -0.35180063
P   8.05
From 3967 observations 2002 Jan. 6-2020 Aug. 3, mean residual 1".0.

・ 星図

・ 光度変化

        m1 = -17.5 + 5 logΔ + 50   log r(t - 200)  [    ,-460]  (              〜2019年11月20日)
        m1 =   0.0 + 5 logΔ + 25.0 log r(t + 85)   [-460, 130]  (2019年11月20日〜2021年 7月 2日)
        m1 =   5.2 + 5 logΔ + 15.0 log r           [ 130,    ]  (2021年 7月 2日〜              )

---------------------------------------------------------------------

軌道要素はM.P.E.C. 2020-P19に掲載されたものです。
星図はステラナビゲータ Ver.10 (アストロアーツ) で作成したものです。
光度グラフはComet for Windowsで作成したものです。

---------------------------------------------------------------------

Copyright(C) Seiichi Yoshida (comet@aerith.net). All rights reserved.